This demonstration page uses our WeatherBlox Daily Observations layout. Learn more.

Left ArrowRight Arrow

38.20091, -84.87328

Hourly Observations for January 14, 2016

Temp ( °F °C ) Dew Point ( °F °C ) Humidity (%) Winds ( mph kmh ) Pressure ( in mb ) Visibility ( mi km ) Precip ( " mm )
12:53 am 00:53 Clear 30 -1.1 15 -9.4 54 54 SW 10 17 30.00 1016 10 16 0.00 0.00
1:53 am 01:53 Clear 29 -1.7 16 -8.9 58 58 SW 7 11 29.99 1016 10 16 0.00 0.00
2:53 am 02:53 Clear 29 -1.7 18 -7.8 63 63 SSW 8 13 30.01 1016 10 16 0.00 0.00
3:53 am 03:53 Clear 30 -1.1 20 -6.7 66 66 SSW 8 13 29.99 1016 10 16 0.00 0.00
4:53 am 04:53 Clear 30 -1.1 21 -6.1 69 69 S 8 13 29.98 1015 10 16 0.00 0.00
5:53 am 05:53 Clear 30 -1.1 21 -6.1 69 69 S 7 11 29.98 1015 10 16 0.00 0.00
6:53 am 06:53 Clear 32 0 23 -5 69 69 S 8 13 29.98 1015 10 16 0.00 0.00
7:53 am 07:53 Clear 33 0.6 25 -3.9 72 72 SSW 10 17 29.97 1015 10 16 0.00 0.00
8:53 am 08:53 Sunny 37 2.8 26 -3.3 65 65 SSW 10 17 29.96 1015 10 16 0.00 0.00
9:53 am 09:53 Sunny 42 5.6 28 -2.2 58 58 SW 12 19 29.97 1015 10 16 0.00 0.00
10:53 am 10:53 Sunny 47 8.3 30 -1.1 52 52 SW 17 28 29.96 1015 N/A 0.00 0.00
11:53 am 11:53 undefined 51 10.6 33 0.6 50 50 SW 18 30 29.95 1014 10 16 0.00 0.00
12:53 pm 12:53 Sunny 54 12.2 33 0.6 45 45 SW 20 31 29.93 1013 10 16 0.00 0.00
1:53 pm 13:53 Sunny 56 13.3 35 1.7 46 46 SSW 18 30 29.90 1013 10 16 0.00 0.00
2:53 pm 14:53 Sunny 57 13.9 35 1.7 44 44 SW 21 33 29.89 1012 10 16 0.00 0.00
3:53 pm 15:53 Sunny 57 13.9 34 1.1 42 42 SW 16 26 29.88 1012 10 16 0.00 0.00
4:53 pm 16:53 Sunny 55 12.8 33 0.6 44 44 SSW 16 26 29.87 1012 10 16 0.00 0.00
5:53 pm 17:53 Clear 52 11.1 33 0.6 49 49 S 9 15 29.86 1011 10 16 0.00 0.00
6:53 pm 18:53 Clear 48 8.9 31 -0.6 52 52 S 8 13 29.87 1011 10 16 0.00 0.00
7:53 pm 19:53 Clear 46 7.8 30 -1.1 54 54 S 7 11 29.85 1011 10 16 0.00 0.00
8:53 pm 20:53 Clear 46 7.8 29 -1.7 51 51 S 9 15 29.84 1010 10 16 0.00 0.00
9:53 pm 21:53 Clear 44 6.7 28 -2.2 53 53 S 8 13 29.83 1010 10 16 0.00 0.00
10:53 pm 22:53 Clear 44 6.7 28 -2.2 53 53 S 8 13 29.81 1010 10 16 0.00 0.00
11:53 pm 23:53 Clear 44 6.7 28 -2.2 53 53 SSW 8 13 29.80 1009 10 16 0.00 0.00

Powered by AerisWeather